Location: Potawatomi Wildlife Park
(41.2308°N, 86.1050°W)
Time: 22:13:24
(UTC-04:00)

HST - Visible Passes

Search period start: 20 October 2014 00:00
Search period end: 30 October 2014 00:00
Orbit: 546 x 551 km, 28.5° (Epoch: 19 October)

Date Brightness Start Highest point End Pass type
(mag) Time Alt. Az. Time Alt. Az. Time Alt. Az.
26 Oct 3.3 20:42:51 10° SSW 20:43:51 12° S 20:43:51 12° S visible
27 Oct 3.1 20:35:01 10° SSW 20:36:57 13° S 20:36:59 13° S visible
28 Oct 3.0 20:27:21 10° SSW 20:29:29 14° S 20:30:06 13° SSE visible
29 Oct 3.0 20:19:47 10° SSW 20:22:01 14° S 20:23:11 13° SSE visible
